User: anonymous   Login
Location: Sungai Jaoh
(2.9167°N, 113.9167°E)
Time: 07:36:36
(UTC+00:00)
Language:

FENGYUN 1C DEB - Orbit

View from above orbital plane
View from above orbital plane
View from above satellite
View from above satellite

Ground track
Ground track

The orbit data is extracted from the following two-line orbital elements,

1 30539U 99025AKD 21300.67989375  .00000532  00000-0  15253-3 0  9994
2 30539  98.8089 194.6193 0140927 128.6616 232.7281 14.43650568775523
Epoch (UTC): 27 October 2021 16:19:02
Eccentricity: 0.0140927
inclination: 98.8089°
perigee height: 646 km
apogee height: 847 km
right ascension of ascending node: 194.6193°
argument of perigee: 128.6616°
revolutions per day: 14.43650568
mean anomaly at epoch: 232.7281°
orbit number at epoch: 77552

The dashed part of the orbit path shows where the satellite is in the earth's shadow,  

DLR